This is the latest recevied weather packets stored in our database for station/object N0QWM. If no packets are shown the sender has not sent any weather packets the latest 10 day(s).
| Time | Temp. | Humidity | Pressure | Rain* | Wind** | Luminosity | Snow |
|---|---|---|---|---|---|---|---|
| 1778241001 | 12.22° C | 99% | 1022.2 hPa | 0 mm | - | 39 W/m² | - |
| 1778240698 | 12.22° C | 99% | 1022.3 hPa | 0 mm | - | 32 W/m² | - |
| 1778240395 | 12.22° C | 99% | 1022.2 hPa | 0 mm | - | 28 W/m² | - |
| 1778240092 | 12.22° C | 99% | 1022 hPa | 0 mm | - | 21 W/m² | - |
| 1778239789 | 12.22° C | 99% | 1022 hPa | 0 mm | - | 13 W/m² | - |
| 1778239486 | 12.22° C | 99% | 1021.8 hPa | 0 mm | - | 12 W/m² | - |
| 1778239183 | 12.22° C | 99% | 1021.8 hPa | 0 mm | - | 10 W/m² | - |
| 1778238880 | 12.22° C | 99% | 1021.8 hPa | 0 mm | - | 7 W/m² | - |
| 1778238577 | 12.22° C | 99% | 1021.7 hPa | 0 mm | - | 6 W/m² | - |
| 1778238275 | 12.22° C | 99% | 1021.7 hPa | 0 mm | - | 4 W/m² | - |
| 1778237974 | 12.22° C | 99% | 1021.4 hPa | 0 mm | - | 2 W/m² | - |
| 1778237671 | 12.22° C | 99% | 1021.7 hPa | 0 mm | - | 0 W/m² | - |
| 1778237368 | 12.22° C | 99% | 1021.6 hPa | 0 mm | - | 0 W/m² | - |
| 1778237065 | 12.22° C | 99% | 1021.6 hPa | 0 mm | - | 0 W/m² | - |
| 1778236762 | 12.22° C | 99% | 1021.6 hPa | 0 mm | - | 0 W/m² | - |
| 1778236459 | 12.22° C | 99% | 1021.4 hPa | 0 mm | - | 0 W/m² | - |
| 1778236156 | 12.22° C | 99% | 1021.5 hPa | 0 mm | - | 0 W/m² | - |
| 1778235855 | 12.22° C | 99% | 1021.5 hPa | 0 mm | - | 0 W/m² | - |
| 1778235551 | 12.22° C | 99% | 1021.4 hPa | 0 mm | - | 0 W/m² | - |
| 1778235249 | 12.22° C | 99% | 1021.2 hPa | 0 mm | - | 0 W/m² | - |
| 1778234946 | 12.22° C | 99% | 1021.2 hPa | 0 mm | - | 0 W/m² | - |
| 1778234645 | 12.22° C | 99% | 1021.2 hPa | 0 mm | - | 0 W/m² | - |
| 1778234340 | 12.22° C | 99% | 1021.2 hPa | 0 mm | - | 0 W/m² | - |
| 1778234038 | 12.22° C | 99% | 1021.1 hPa | 0 mm | - | 0 W/m² | - |
| 1778233735 | 12.22° C | 99% | 1021 hPa | 0 mm | - | 0 W/m² | - |
* Rain latest hour (hover to see other rain measurements)
** Current wind speed in m/s (hover to see current wind gust speed)